Location: Mitty Observatory
(35.9148°N, 88.8847°W)
Time: 21:42:23
(UTC-06:00)

LightSail 2 - Pass Details

Date: 15 November 2019
Orbit: 696 x 730 km, 24.0° (Epoch: 06 December)

Event Time Altitude Azimuth Distance (km) Brightness Sun altitude
Exits shadow 03:50:00 19° 153° (SSE) 1,697 7.3 -32.7°
Drops below altitude 10° 03:52:16 10° 130° (SE) 2,210 8.2 -32.3°
Sets 03:55:12 0° 115° (ESE) 3,134 9.4 -31.7°
